Location: Morehouse Lake Observatory
(43.3628°N, 74.6770°W)
Time: 08:36:30
(UTC-05:00)

Envisat - Pass Details

Date: 24 October 2019
Orbit: 764 x 766 km, 98.1° (Epoch: 14 November)

Event Time Altitude Azimuth Distance (km) Brightness Sun altitude
Rises 19:20:23 0° 177° (S) 3,217 6.2 -14.9°
Reaches altitude 10° 19:22:43 10° 181° (S) 2,295 5.5 -15.4°
Maximum altitude 19:27:41 56° 260° (W) 907 3.7 -16.3°
Drops below altitude 10° 19:32:41 10° 339° (NNW) 2,311 5.7 -17.2°
Sets 19:35:03 0° 343° (NNW) 3,241 6.5 -17.6°
